Edinburg, TX

11:48 PM CDT on October 16, 2017 (GMT -0500)
Edinburg

Weather History for KEBG - June, 2013

Change the Weather History Date:

Wednesday, June 12, 2013

  Actual Average (KMFE) Record (KMFE)
Temperature  
Mean Temperature 88 °F -  
Max Temperature 97 °F 94 °F 103 °F (2001)
Min Temperature 79 °F 74 °F 64 °F (1979)
Cooling Degree Days 23    
Growing Degree Days 38 (Base 50)    
Moisture  
Dew Point 72 °F    
Average Humidity 64    
Maximum Humidity 87    
Minimum Humidity 36    
Precipitation  
Precipitation 0.00 in - - ()
Sea Level Pressure  
Sea Level Pressure 29.98 in    
Wind  
Wind Speed 9 mph (SE)    
Max Wind Speed 22 mph    
Max Gust Speed 29 mph    
Visibility 7 miles    
Events      
Averages and records for this station are not official NWS values.
T = Trace of Precipitation, MM = Missing Value Source: NWS Daily Summary

Daily Weather History Graph

Daily Weather History Graph

Search for Another Location

Airport or City:

Trip Planner

Search our weather history database for the weather conditions in past years. The results will help you decide how hot, cold, wet, or windy it might be!

Date:

Astronomy

Jun. 12, 2013 Rise Set
Actual Time 6:39 AM CDT 8:25 PM CDT
Civil Twilight 6:12 AM CDT 8:52 PM CDT
Nautical Twilight 5:41 AM CDT 9:23 PM CDT
Astronomical Twilight 5:08 AM CDT 9:56 PM CDT
Moon 10:04 AM CDT (6/12) 11:21 PM CDT (6/12)
Length of Visible Light 14h 39m
Length of Day
13h 46m
Waxing Crescent, 14% of the Moon is Illuminated
Jun 12
Waxing Crescent
Jun 16
First Quarter
Jun 23
Full
Jun 29
Last Quarter
Jul 8
New

Hourly Weather History & Observations

Time (CDT) Temp. Heat Index Dew Point Humidity Pressure Visibility Wind Dir Wind Speed Gust Speed Precip Events Conditions
12:15 AM 80.1 °F 84.5 °F 73.8 °F 81% 30.02 in 7.0 mi SSE 3.5 mph - N/A   Clear
12:35 AM 79.3 °F - 73.6 °F 82% 30.02 in 5.0 mi SE 4.6 mph - N/A   Haze
12:55 AM 79.2 °F - 73.8 °F 83% 30.02 in 7.0 mi SE 5.8 mph - N/A   Clear
1:15 AM 79.3 °F - 74.3 °F 84% 30.01 in 7.0 mi SE 6.9 mph - N/A   Clear
1:35 AM 79.3 °F - 74.5 °F 85% 30.01 in 7.0 mi SE 5.8 mph - N/A   Clear
1:55 AM 79.2 °F - 74.5 °F 86% 30.00 in 7.0 mi SE 4.6 mph - N/A   Clear
2:15 AM 79.2 °F - 74.8 °F 87% 29.99 in 7.0 mi SE 4.6 mph - N/A   Scattered Clouds
2:35 AM 79.3 °F - 75.2 °F 87% 29.99 in 7.0 mi SE 4.6 mph - N/A   Mostly Cloudy
2:55 AM 79.7 °F - 75.4 °F 87% 29.98 in 7.0 mi ESE 5.8 mph - N/A   Overcast
3:15 AM 79.7 °F - 75.6 °F 87% 29.97 in 7.0 mi ESE 5.8 mph - N/A   Overcast
3:35 AM 80.1 °F 85.4 °F 75.7 °F 87% 29.97 in 7.0 mi Calm Calm - N/A   Overcast
3:55 AM 80.1 °F 85.4 °F 75.7 °F 87% 29.97 in 7.0 mi East 3.5 mph - N/A   Overcast
4:15 AM 80.6 °F 86.6 °F 76.1 °F 86% 29.97 in 7.0 mi SE 4.6 mph - N/A   Overcast
4:35 AM 80.6 °F 86.8 °F 76.3 °F 87% 29.97 in 5.0 mi SE 3.5 mph - N/A   Haze
4:55 AM 80.6 °F 86.8 °F 76.3 °F 87% 29.98 in 7.0 mi SE 3.5 mph - N/A   Overcast
5:15 AM 80.6 °F 86.8 °F 76.5 °F 87% 29.98 in 5.0 mi SE 5.8 mph - N/A   Haze
5:35 AM 80.8 °F 87.2 °F 76.6 °F 87% 29.99 in 5.0 mi SSE 4.6 mph - N/A   Overcast
5:55 AM 80.6 °F 86.8 °F 76.5 °F 87% 29.99 in 7.0 mi SE 5.8 mph - N/A   Mostly Cloudy
6:15 AM 80.6 °F 86.8 °F 76.3 °F 87% 29.99 in 5.0 mi SE 5.8 mph - N/A   Haze
6:35 AM 80.4 °F 86.3 °F 76.3 °F 87% 29.99 in 5.0 mi SE 5.8 mph - N/A   Overcast
6:55 AM 80.6 °F 86.8 °F 76.5 °F 87% 30.00 in 5.0 mi SE 6.9 mph - N/A   Overcast
7:15 AM 80.6 °F 86.8 °F 76.5 °F 87% 30.00 in 5.0 mi SE 8.1 mph - N/A   Mostly Cloudy
7:35 AM 81.0 °F 87.5 °F 76.3 °F 86% 30.01 in 5.0 mi SE 8.1 mph - N/A   Haze
7:55 AM 81.5 °F 88.7 °F 76.5 °F 85% 30.01 in 5.0 mi SE 11.5 mph - N/A   Haze
8:15 AM 81.7 °F 87.3 °F 73.8 °F 77% 30.02 in 7.0 mi SSE 12.7 mph - N/A   Mostly Cloudy
8:35 AM 83.1 °F 88.4 °F 72.1 °F 69% 30.01 in 10.0 mi SSE 12.7 mph 18.4 mph N/A   Clear
8:55 AM 84.2 °F 89.0 °F 70.7 °F 64% 30.01 in 7.0 mi SSE 17.3 mph 21.9 mph N/A   Clear
9:15 AM 84.2 °F 88.7 °F 70.2 °F 63% 30.01 in 7.0 mi SSE 10.4 mph 20.7 mph N/A   Clear
9:35 AM 84.9 °F 89.4 °F 70.0 °F 61% 30.01 in 7.0 mi SSE 12.7 mph - N/A   Clear
9:55 AM 86.4 °F 91.1 °F 70.2 °F 58% 30.01 in 7.0 mi South 15.0 mph 19.6 mph N/A   Clear
10:15 AM 86.9 °F 91.7 °F 70.2 °F 57% 30.00 in 7.0 mi South 12.7 mph 18.4 mph N/A   Clear
10:35 AM 88.5 °F 93.1 °F 69.6 °F 53% 30.00 in 7.0 mi SSE 13.8 mph 18.4 mph N/A   Clear
10:55 AM 89.8 °F 94.2 °F 68.9 °F 50% 30.00 in 7.0 mi South 11.5 mph - N/A   Clear
11:15 AM 91.2 °F 95.5 °F 68.5 °F 47% 29.99 in 7.0 mi South 11.5 mph 17.3 mph N/A   Clear
11:35 AM 93.0 °F 97.4 °F 68.2 °F 44% 30.00 in 7.0 mi SSE 11.5 mph 21.9 mph N/A   Clear
11:55 AM 94.3 °F 97.7 °F 66.4 °F 40% 30.00 in 7.0 mi SE 17.3 mph 20.7 mph N/A   Scattered Clouds
12:15 PM 94.1 °F 97.3 °F 66.7 °F 40% 30.00 in 7.0 mi SE 20.7 mph 28.8 mph N/A   Clear
12:35 PM 92.7 °F 95.3 °F 65.8 °F 41% 30.00 in 7.0 mi ESE 18.4 mph 25.3 mph N/A   Clear
12:55 PM 93.7 °F 96.7 °F 66.4 °F 40% 30.00 in 7.0 mi SE 18.4 mph 23.0 mph N/A   Clear
1:15 PM 93.4 °F 96.6 °F 66.4 °F 41% 30.00 in 7.0 mi SE 13.8 mph 26.5 mph N/A   Clear
1:35 PM 93.7 °F 96.7 °F 66.4 °F 40% 29.99 in 7.0 mi SE 17.3 mph - N/A   Clear
1:55 PM 93.9 °F 97.0 °F 66.6 °F 40% 29.99 in 7.0 mi SSE 15.0 mph 26.5 mph N/A   Scattered Clouds
2:15 PM 95.7 °F 99.8 °F 67.1 °F 39% 29.98 in 7.0 mi South 15.0 mph 25.3 mph N/A   Scattered Clouds
2:35 PM 96.6 °F 99.8 °F 65.5 °F 36% 29.97 in 10.0 mi SSE 15.0 mph 25.3 mph N/A   Clear
2:55 PM 95.9 °F 99.0 °F 66.0 °F 37% 29.97 in 7.0 mi SE 17.3 mph 24.2 mph N/A   Clear
3:15 PM 97.2 °F 101.3 °F 66.9 °F 37% 29.96 in 7.0 mi SSE 17.3 mph 26.5 mph N/A   Scattered Clouds
3:35 PM 97.7 °F 101.7 °F 66.6 °F 36% 29.95 in 7.0 mi SE 17.3 mph 25.3 mph N/A   Scattered Clouds
3:55 PM 96.3 °F 100.2 °F 66.9 °F 38% 29.94 in 7.0 mi SSE 16.1 mph 26.5 mph N/A   Scattered Clouds
4:15 PM 97.0 °F 101.0 °F 67.1 °F 37% 29.93 in 7.0 mi SE 21.9 mph - N/A   Scattered Clouds
4:35 PM 95.4 °F 99.7 °F 67.6 °F 40% 29.93 in 7.0 mi SE 18.4 mph 25.3 mph N/A   Scattered Clouds
4:55 PM 95.7 °F 100.3 °F 68.0 °F 40% 29.92 in 7.0 mi SE 19.6 mph 27.6 mph N/A   Scattered Clouds
5:15 PM 94.5 °F 98.5 °F 67.5 °F 41% 29.92 in 7.0 mi SE 13.8 mph 24.2 mph N/A   Scattered Clouds
5:35 PM 93.9 °F 98.6 °F 68.2 °F 43% 29.92 in 5.0 mi SE 15.0 mph - N/A   Haze
5:55 PM 93.4 °F 98.1 °F 68.7 °F 44% 29.91 in 7.0 mi SE 18.4 mph 25.3 mph N/A   Scattered Clouds
6:15 PM 91.4 °F 96.3 °F 69.1 °F 48% 29.92 in 7.0 mi SSE 18.4 mph 25.3 mph N/A   Clear
6:35 PM 90.5 °F 95.5 °F 69.8 °F 50% 29.91 in 10.0 mi SSE 18.4 mph - N/A   Clear
6:55 PM 90.0 °F 94.5 °F 69.3 °F 50% 29.92 in 7.0 mi SSE 16.1 mph - N/A   Clear
7:15 PM 89.6 °F 95.2 °F 70.5 °F 53% 29.93 in 7.0 mi SE 17.3 mph - N/A   Clear
7:35 PM 89.1 °F 95.0 °F 71.1 °F 55% 29.94 in 7.0 mi SE 17.3 mph 21.9 mph N/A   Clear
8:35 PM 86.7 °F 93.3 °F 72.1 °F 62% 29.96 in 10.0 mi SE 10.4 mph - N/A   Clear
8:55 PM 86.2 °F 93.0 °F 72.5 °F 64% 29.96 in 10.0 mi SE 10.4 mph - N/A   Clear
9:15 PM 86.0 °F 93.0 °F 72.9 °F 65% 29.96 in 10.0 mi SE 12.7 mph 18.4 mph N/A   Clear
9:35 PM 85.5 °F 93.0 °F 73.8 °F 68% 29.97 in 10.0 mi SE 10.4 mph 16.1 mph N/A   Clear
9:55 PM 85.1 °F 92.6 °F 73.9 °F 69% 29.97 in 10.0 mi SE 11.5 mph 16.1 mph N/A   Clear
10:15 PM 84.6 °F 91.7 °F 73.9 °F 70% 29.98 in 10.0 mi SE 12.7 mph - N/A   Clear
10:35 PM 84.2 °F 91.6 °F 74.3 °F 72% 29.98 in 10.0 mi SE 11.5 mph - N/A   Clear
10:55 PM 83.7 °F 91.0 °F 74.7 °F 74% 29.99 in 7.0 mi SE 10.4 mph - N/A   Clear
11:15 PM 83.3 °F 90.5 °F 74.7 °F 75% 29.99 in 7.0 mi SE 10.4 mph - N/A   Clear
11:35 PM 82.9 °F 89.9 °F 74.8 °F 76% 29.99 in 7.0 mi SE 8.1 mph - N/A   Clear
11:55 PM 82.6 °F 89.7 °F 75.0 °F 78% 30.00 in 7.0 mi SE 6.9 mph - N/A   Clear